Location: Brede
(50.9167°N, 0.6000°E)
Time: 01:56:38
(UTC+00:00)

Cosmos 1898 Rocket - Pass Details

Date: 08 August 2020
Orbit: 754 x 783 km, 74.0° (Epoch: 27 September)

Event Time Altitude Azimuth Distance (km) Brightness Sun altitude
Exits shadow 03:16:06 14° 219° (SW) 2,013 5.0 -10.9°
Maximum altitude 03:20:29 61° 298° (WNW) 866 3.7 -10.4°
Drops below altitude 10° 03:25:40 10° 19° (NNE) 2,302 7.0 -9.8°
Sets 03:28:04 0° 23° (NNE) 3,228 8.0 -9.5°
